Overview Statistics Trail Chart Weather Telemetry Raw packets
 

This is the latest recevied weather packets stored in our database for station/object K7DC. If no packets are shown the sender has not sent any weather packets the latest 10 day(s).

<< 82 83 84 85 86 87 88 >>
Time Temp. Humidity Pressure Rain* Wind** Luminosity Snow
1788036085 44.44° C 20% 1013.4 hPa 0 mm - 747 W/m² -
1788035784 43.89° C 20% 1013.7 hPa 0 mm - 862 W/m² -
1788035480 43.33° C 21% 1013.5 hPa 0 mm - 858 W/m² -
1788035175 43.33° C 21% 1013.9 hPa 0 mm - 872 W/m² -
1788034871 42.22° C 22% 1013.9 hPa 0 mm - 867 W/m² -
1788034567 42.78° C 22% 1014 hPa 0 mm - 870 W/m² -
1788034263 42.78° C 21% 1014 hPa 0 mm - 865 W/m² -
1788033962 42.78° C 21% 1014.5 hPa 0 mm - 871 W/m² -
1788033657 42.22° C 23% 1014.3 hPa 0 mm - 876 W/m² -
1788033356 42.22° C 22% 1014.2 hPa 0 mm - 874 W/m² -
1788033052 41.67° C 22% 1014.6 hPa 0 mm - 877 W/m² -
1788032751 42.22° C 22% 1014.7 hPa 0 mm - 878 W/m² -
1788032446 43.89° C 20% 1014.7 hPa 0 mm - 881 W/m² -
1788032143 42.78° C 21% 1014.7 hPa 0 mm - 881 W/m² -
1788031839 42.22° C 22% 1015.1 hPa 0 mm - 883 W/m² -
1788031539 42.22° C 22% 1015.1 hPa 0 mm - 882 W/m² -
1788031238 43.33° C 21% 1015.2 hPa 0 mm - 878 W/m² -
1788030938 43.33° C 20% 1015.3 hPa 0 mm - 877 W/m² -
1788030637 43.33° C 20% 1015.2 hPa 0 mm - 876 W/m² -
1788030332 43.33° C 21% 1015.4 hPa 0 mm - 876 W/m² -
1788030028 42.78° C 21% 1015.4 hPa 0 mm - 870 W/m² -
1788029728 42.22° C 21% 1015.4 hPa 0 mm - 869 W/m² -
1788029423 41.67° C 22% 1015.6 hPa 0 mm - 861 W/m² -
1788029122 40.56° C 25% 1015.6 hPa 0 mm - 855 W/m² -
1788028816 40° C 27% 1015.9 hPa 0 mm - 849 W/m² -

* Rain latest hour (hover to see other rain measurements)
** Current wind speed in m/s (hover to see current wind gust speed)